Weather reports worldwide

Advertisment
La Coruna, Spain (8001): temperature & dewpoint: 09.07.2018 21:00:00 - 15.07.2018 21:00:00 (CEST)La Coruna, Spain (8001): wind speed: 09.07.2018 21:00:00 - 15.07.2018 21:00:00 (CEST)La Coruna, Spain (8001): wind direction: 09.07.2018 21:00:00 - 15.07.2018 21:00:00 (CEST)La Coruna, Spain (8001): reduced air pressure: 09.07.2018 21:00:00 - 15.07.2018 21:00:00 (CEST)La Coruna, Spain (8001): visibility: 09.07.2018 21:00:00 - 15.07.2018 21:00:00 (CEST)La Coruna, Spain (8001): precipitation: 09.07.2018 21:00:00 - 15.07.2018 21:00:00 (CEST)
Date & Time tt [°C] td [°C] ff [km/h] ff [kn] dd ppp [hPa] vv [km] rr [mm]
15.07.2018 21:00:00 - - - - - - - -
15.07.2018 20:00:00 18,6 15,3 13 7 W 1019,5 20 -
15.07.2018 19:00:00 19,1 15,2 8 4 W 1019,5 20 0,0
15.07.2018 18:00:00 19,4 16,4 9 5 W 1019,3 20 0,0
15.07.2018 17:00:00 19,2 16,6 13 7 W 1019,0 17 -
15.07.2018 16:00:00 18,9 16,9 9 5 W 1019,0 10 0,4
15.07.2018 15:00:00 18,6 16,9 11 6 W 1018,9 15 0,0
15.07.2018 14:00:00 18,7 17,0 15 8 WSW 1018,8 2,5 -
15.07.2018 13:00:00 19,3 17,6 11 6 W 1018,6 4,8 0,0
15.07.2018 12:00:00 19,7 17,5 13 7 WSW 1018,3 19 0,0
15.07.2018 11:00:00 19,0 17,0 13 7 WSW 1018,2 6 -
15.07.2018 10:00:00 18,8 16,6 11 6 SW 1017,9 12 0,0
15.07.2018 09:00:00 18,6 16,9 11 6 WSW 1017,8 10 0,0
15.07.2018 08:00:00 18,3 17,0 9 5 SW 1017,7 5 -
15.07.2018 07:00:00 18,2 16,4 5 3 WSW 1017,6 15 0,0
15.07.2018 06:00:00 18,4 16,6 5 3 NW 1017,2 11 0,0
15.07.2018 05:00:00 19,0 16,6 4 2 NE 1017,5 15 -
15.07.2018 04:00:00 19,4 16,2 4 2 WSW 1017,4 16 0,0
15.07.2018 03:00:00 19,6 16,2 5 3 S 1017,9 19 0,0
15.07.2018 02:00:00 19,5 16,7 5 3 SE 1018,5 8 -
15.07.2018 01:00:00 18,7 16,7 8 4 SW 1018,5 11 0,0
15.07.2018 00:00:00 18,4 17,2 8 4 WSW 1018,4 6 0,0
14.07.2018 23:00:00 18,6 16,9 13 7 W 1017,8 10 -
14.07.2018 22:00:00 19,3 17,8 8 4 WSW 1017,6 10 0,0
14.07.2018 21:00:00 19,8 18,1 8 4 W 1018,1 11 0,0
14.07.2018 20:00:00 20,5 18,1 8 4 WSW 1017,5 15 -
14.07.2018 19:00:00 20,5 18,1 18 10 W 1017,1 14 0,0
14.07.2018 18:00:00 20,3 18,2 15 8 WSW 1017,8 10 0,0
14.07.2018 17:00:00 23,0 18,5 24 13 W 1017,0 18 -
14.07.2018 16:00:00 23,8 18,7 9 5 WNW 1016,9 20 0,0
14.07.2018 15:00:00 23,5 18,4 11 6 WNW 1017,4 20 0,0
14.07.2018 14:00:00 23,7 17,9 13 7 WNW 1017,3 10 -
14.07.2018 13:00:00 23,5 17,9 9 5 W 1017,2 19 0,0
14.07.2018 12:00:00 23,4 17,8 8 4 NE 1017,2 19 0,0
14.07.2018 11:00:00 22,5 17,8 4 2 NE 1017,4 10 -
14.07.2018 10:00:00 21,9 17,7 5 3 ENE 1017,4 16 0,0
14.07.2018 09:00:00 19,7 17,3 5 3 ESE 1017,4 17 0,0
14.07.2018 08:00:00 18,4 16,9 4 2 SSE 1017,3 15 -
14.07.2018 07:00:00 17,8 16,3 2 1 NW 1017,2 12 0,0
14.07.2018 06:00:00 18,6 16,6 2 1 N 1017,3 11 0,0
14.07.2018 05:00:00 19,5 17,1 4 2 SE 1017,3 15 -
14.07.2018 04:00:00 19,1 16,9 2 1 N 1017,5 20 0,0
14.07.2018 03:00:00 19,2 16,8 4 2 NNW 1017,4 18 0,0
14.07.2018 02:00:00 20,5 17,3 2 1 NE 1017,4 15 -
14.07.2018 01:00:00 20,6 17,2 5 3 E 1017,2 20 0,0
14.07.2018 00:00:00 20,9 17,3 5 3 NE 1017,2 20 0,0
13.07.2018 23:00:00 21,3 17,3 13 7 ENE 1016,9 20 -
13.07.2018 22:00:00 21,8 17,4 9 5 NE 1016,3 20 0,0
13.07.2018 21:00:00 22,2 17,6 9 5 NE 1015,9 20 0,0
13.07.2018 20:00:00 19,5 16,5 11 6 NNW 1015,9 19 -
13.07.2018 19:00:00 20,4 16,6 8 4 NNW 1015,9 20 0,0
13.07.2018 18:00:00 21,9 17,1 13 7 NNW 1015,7 20 0,0
13.07.2018 17:00:00 21,8 17,0 11 6 NNW 1015,7 20 -
13.07.2018 16:00:00 22,2 17,1 13 7 N 1016,0 20 0,0
13.07.2018 15:00:00 22,5 17,0 9 5 NNW 1016,3 20 0,0
13.07.2018 14:00:00 22,9 16,7 11 6 N 1016,5 25 -
13.07.2018 13:00:00 24,1 17,1 9 5 NNW 1016,4 20 0,0
13.07.2018 12:00:00 23,9 17,2 5 3 N 1016,2 20 0,0
13.07.2018 11:00:00 22,9 17,1 8 4 NE 1016,2 25 -
13.07.2018 10:00:00 21,4 16,8 5 3 NE 1016,5 20 0,0
13.07.2018 09:00:00 19,4 16,2 4 2 NNW 1016,4 19 0,0
13.07.2018 08:00:00 18,0 16,0 4 2 NNE 1016,2 25 -
13.07.2018 07:00:00 17,5 15,5 9 5 N 1016,4 18 0,0
13.07.2018 06:00:00 18,1 15,5 4 2 NW 1016,3 20 0,0
13.07.2018 05:00:00 18,7 15,8 4 2 NNW 1016,3 22 -
13.07.2018 04:00:00 19,1 16,0 5 3 ENE 1016,2 20 0,0
13.07.2018 03:00:00 19,7 16,2 8 4 ENE 1016,5 20 0,0
13.07.2018 02:00:00 20,1 16,1 11 6 NE 1016,5 22 -
13.07.2018 01:00:00 20,3 15,9 9 5 NE 1016,7 20 0,0
13.07.2018 00:00:00 21,0 16,0 9 5 NE 1016,9 20 0,0
12.07.2018 23:00:00 21,2 15,7 11 6 ENE 1016,6 25 -
12.07.2018 22:00:00 21,4 16,1 15 8 NNE 1016,0 20 0,0
12.07.2018 21:00:00 22,0 16,0 16 9 NE 1015,9 20 0,0
12.07.2018 20:00:00 19,7 16,5 8 4 N 1015,9 19 -
12.07.2018 19:00:00 19,2 17,0 15 8 N 1016,0 18 0,0
12.07.2018 18:00:00 20,4 17,4 18 10 N 1016,2 20 0,0
12.07.2018 17:00:00 20,9 17,9 24 13 N 1016,5 20 -
12.07.2018 16:00:00 20,5 17,7 11 6 NNW 1017,0 20 0,0
12.07.2018 15:00:00 22,2 18,2 11 6 NW 1017,6 20 0,0
12.07.2018 14:00:00 22,1 17,9 13 7 WNW 1018,0 18 -
12.07.2018 13:00:00 21,7 17,9 5 3 NNW 1018,2 20 0,0
12.07.2018 12:00:00 21,5 17,1 8 4 NE 1018,4 20 0,0
12.07.2018 11:00:00 19,6 16,4 4 2 NE 1018,7 12 -
12.07.2018 10:00:00 19,6 16,8 5 3 N 1018,8 19 0,0
12.07.2018 09:00:00 18,2 16,4 4 2 WNW 1018,4 17 0,0
12.07.2018 08:00:00 17,5 16,2 5 3 NW 1018,2 2,0 -
12.07.2018 07:00:00 17,5 16,2 5 3 NW 1017,9 16 0,0
12.07.2018 06:00:00 17,5 16,2 4 2 NNW 1018,1 15 0,0
12.07.2018 05:00:00 17,4 16,1 4 2 WNW 1018,3 15 -
12.07.2018 04:00:00 17,3 16,2 4 2 NW 1018,6 16 0,0
12.07.2018 03:00:00 17,2 16,1 9 5 WNW 1019,0 16 0,0
12.07.2018 02:00:00 17,3 16,0 5 3 W 1019,1 15 -
12.07.2018 01:00:00 17,3 15,8 5 3 NNW 1019,7 16 0,0
12.07.2018 00:00:00 17,3 15,8 8 4 N 1019,8 18 0,0
11.07.2018 23:00:00 17,8 16,1 13 7 NNW 1019,4 18 -
11.07.2018 22:00:00 18,2 16,2 13 7 NNW 1019,2 18 0,0
11.07.2018 21:00:00 18,2 16,0 13 7 N 1019,1 20 0,0
11.07.2018 20:00:00 18,9 15,8 11 6 N 1019,0 20 -
11.07.2018 19:00:00 19,4 15,1 11 6 NNW 1019,2 20 0,0
11.07.2018 18:00:00 19,6 15,5 15 8 N 1019,1 20 0,0
11.07.2018 17:00:00 19,7 15,3 18 10 N 1019,4 20 -
11.07.2018 16:00:00 18,6 15,7 16 9 N 1019,6 20 0,0
11.07.2018 15:00:00 18,9 15,4 18 10 N 1019,7 20 0,0
11.07.2018 14:00:00 18,6 15,3 16 9 NE 1019,7 20 -
11.07.2018 13:00:00 18,5 15,7 16 9 N 1019,7 19 0,0
11.07.2018 12:00:00 18,3 15,9 15 8 NNE 1019,7 18 0,0
11.07.2018 11:00:00 17,8 15,8 11 6 NNE 1019,4 15 -
11.07.2018 10:00:00 17,4 15,9 16 9 NNE 1019,2 13 0,0
11.07.2018 09:00:00 17,3 16,0 18 10 NNE 1019,0 12 0,0
11.07.2018 08:00:00 16,9 16,1 18 10 N 1018,3 15 -
11.07.2018 07:00:00 17,1 16,5 15 8 N 1018,1 11 0,0
11.07.2018 06:00:00 17,1 16,8 11 6 N 1018,2 10 0,0
11.07.2018 05:00:00 17,2 16,9 15 8 N 1018,3 2,0 -
11.07.2018 04:00:00 17,1 16,8 8 4 NNW 1018,5 6 0,0
11.07.2018 03:00:00 17,4 16,8 8 4 WNW 1018,7 7 0,0
11.07.2018 02:00:00 17,8 16,5 5 3 N 1018,8 2,0 -
11.07.2018 01:00:00 18,1 16,6 9 5 NNE 1019,2 19 0,0
11.07.2018 00:00:00 17,8 16,5 9 5 N 1019,3 14 0,0
10.07.2018 23:00:00 18,3 16,6 9 5 N 1019,0 20 -
10.07.2018 22:00:00 18,6 17,1 15 8 N 1018,5 16 0,0
10.07.2018 21:00:00 19,0 17,1 13 7 N 1018,0 18 0,0
10.07.2018 20:00:00 19,8 16,4 16 9 N 1017,7 20 -
10.07.2018 19:00:00 20,0 17,4 16 9 N 1017,9 19 0,0
10.07.2018 18:00:00 19,9 17,9 18 10 N 1018,0 17 0,0
10.07.2018 17:00:00 20,2 17,8 16 9 N 1018,1 17 -
10.07.2018 16:00:00 20,3 17,9 16 9 N 1018,3 18 0,0
10.07.2018 15:00:00 20,7 18,3 24 13 N 1018,5 18 0,0
10.07.2018 14:00:00 20,9 17,9 22 12 N 1019,0 15 -
10.07.2018 13:00:00 21,6 18,0 18 10 N 1019,5 18 0,0
10.07.2018 12:00:00 21,9 17,7 9 5 N 1019,7 18 0,0
10.07.2018 11:00:00 21,8 17,2 5 3 N 1020,0 8 -
10.07.2018 10:00:00 21,1 17,1 9 5 NNE 1020,1 19 0,0
10.07.2018 09:00:00 19,8 17,0 8 4 ENE 1020,3 18 0,0
10.07.2018 08:00:00 18,5 16,5 8 4 ENE 1020,3 6 -
10.07.2018 07:00:00 18,0 16,5 5 3 ENE 1020,2 13 0,0
10.07.2018 06:00:00 18,3 16,6 5 3 NNE 1020,2 12 0,0
10.07.2018 05:00:00 18,7 16,7 13 7 ENE 1020,1 20 -
10.07.2018 04:00:00 18,6 16,7 13 7 NE 1020,3 16 0,0
10.07.2018 03:00:00 18,0 16,3 8 4 NNE 1020,7 16 0,0
10.07.2018 02:00:00 17,9 16,2 8 4 NW 1021,0 20 -
10.07.2018 01:00:00 18,8 16,0 8 4 NNW 1021,2 19 0,0
10.07.2018 00:00:00 20,5 16,5 15 8 NE 1021,4 20 0,0
09.07.2018 23:00:00 19,9 16,1 8 4 N 1021,1 20 -
09.07.2018 22:00:00 21,4 16,1 8 4 N 1020,6 20 0,0
09.07.2018 21:00:00 22,8 15,9 16 9 NNE 1020,3 20 0,0

tt = temperature
td = dewpoint
ff = wind speed
dd = wind direction
ppp = reduced air pressure
vv = visibility
rr = precipitation

Next stations